STARLINK-1472 (45736 NORAD) Tracking and Keplerian Element Data

This shows tracking and keplerian element data for the satellite.

Feedback or suggestion? Click here.




ElementValue
Catalog45736
NameSTARLINK-1472
Epoch Orbit461
Epoch Day186.50001157
Epoch Year2020
RAAN193.4874
Inclination53.0001
Eccentricity0.0001428
Argument of Perigee122.5336
Mean Anonmoly79.6109
Mean Motion15.59235567
Decay Rate-0.01184819
L11 45736U 20038G 20186.50001157 -.01184819 00000-0 -16465-1 0 9991
L22 45736 53.0001 193.4874 0001428 122.5336 79.6109 15.59235567 4610

Live tracking and technical data element details for STARLINK-1472 (NORAD 45736). STARLINK-1472 can be tracked NOW for your location showing map with azimuth and elevation plus other details from your city location.

Track the satellite on the map from your city or location and see movement details for azimuth, elevation, latitude, longitude, range, height, and movement on the map or in text.







IsCatalogInMostPopularTable: catalog: 45736, numindb: 7
Update: records affected: 1



GetName: 45736 STARLINK-1472

Hit Count: updated at: Sun, 05 Jul 2020 16:26:47 GMT